Location: Malanoce
(44.2500°N, 7.4667°E)
Time: 08:59:39
(UTC+00:00)

BlueWalker 3 - Pass Details

Date: 25 January 2026
Orbit: 450 x 461 km, 53.2° (Epoch: 11 February)

Event Time Altitude Azimuth Distance (km) Brightness Sun altitude
Rises 18:12:02 0° 264° (W) 2,453 7.2 -18.2°
Reaches altitude 10° 18:14:20 10° 276° (W) 1,581 5.6 -18.6°
Maximum altitude 18:17:31 30° 339° (NNW) 833 3.1 -19.2°
Enters shadow 18:18:21 27° 6° (N) 902 3.1 -19.3°
